{"data":{"norad_id":43073,"intl_designator":"2017-083D","name":"IRIDIUM 130","alt_names":[],"object_type":"PAYLOAD","status":"ACTIVE","operator":null,"country":"US","launch_date":"2017-12-23","launch_site_code":"AFWTR","launch_vehicle":null,"mission":null,"orbit_class":"UNKNOWN","rcs_meters":null,"size_class":null,"mass_kg":null,"dimensions":null,"purposes":["comms"],"wikipedia_slug":null,"has_3d_model":false,"image_url":null,"decayed_at":null,"tle_current":{"epoch":"2026-05-25T00:28:59.008224Z","epoch_age_seconds":76448,"freshness":"FRESH","line1":"1 43073U 17083D   26145.02012741  .00000043  00000+0  84134-5 0  9992","line2":"2 43073  86.3965 331.9644 0002122  82.8671 277.2766 14.34217980440795","mean_motion":14.3421798,"eccentricity":0.0002122,"inclination_deg":86.3965,"raan_deg":331.9644,"arg_perigee_deg":82.8671,"mean_anomaly_deg":277.2766,"bstar":8.4134e-6,"rev_number":44079,"period_min":100.40314792316,"perigee_km":776.14792784179,"apogee_km":779.18485080022,"semimajor_km":7155.803389321,"source":"CELESTRAK","updated_at":"2026-05-25T13:38:14.805270Z"}}}